[[{"header":{"parameterUnit":"m.s-1","parameterCategory":1,"la1":30.2991,"la2":30.254,"lo1":-89.0895,"lo2":-89.0444,"dy":0.0017,"dx":0.0017,"nx":28,"ny":28,"refTime":"2025-03-13T21:00:00:Z","depth":0,"parameterNumber":2,"parameterNumberName":"U-component_of_WINDS"},"data":[0,0,0,0,0,0,0,0,0,0,0,0,0,0,0,0,0,0,0,0,0,0,0,0,0,0,0,0,0,0,0,0,0,0,0,0,0,0,0,0,0,0,0,0,0,0,0,0,0,0,0,0,0,0,0,0,0,0,-5.3133,-5.3134,0,-5.322,-5.3221,-5.3222,-5.3204,-5.3203,-5.3201,-5.32,-5.3286,-5.329,-5.3293,0,0,0,0,0,0,0,0,0,0,0,0,0,-5.2947,-5.2951,-5.3133,-5.3134,-5.3135,-5.322,-5.3221,-5.3223,-5.3205,-5.3203,-5.3201,-5.3199,-5.3285,-5.3289,-5.3294,0,0,0,0,0,0,0,0,0,0,0,0,0,-5.303,-5.2952,-5.3133,-5.3136,-5.3138,-5.322,-5.3222,-5.3223,-5.3205,-5.3203,-5.32,-5.3198,-5.3283,-5.3289,-5.3294,-5.3377,0,0,-5.3312,-5.3314,0,0,0,0,0,0,0,0,-5.3026,-5.3037,-5.3135,-5.3136,-5.3138,-5.3199,-5.3188,-5.3275,-5.3206,-5.3179,-5.32,-5.3197,-5.3259,-5.3266,-5.3288,-5.3381,-5.3385,-5.3312,-5.3316,-5.3318,-5.332,0,0,0,0,0,0,0,-5.302,-5.3033,-5.3167,-5.3136,-5.3138,-5.3133,-5.3142,-5.3204,-5.3231,-5.3181,-5.318,-5.3191,-5.3259,-5.3282,-5.329,-5.3386,-5.3312,-5.3317,-5.3321,-5.3323,-5.3552,-5.3555,0,0,0,0,0,0,-5.3013,-5.3029,-5.3164,-5.317,-5.3075,-5.3138,-5.3148,-5.3182,-5.3231,-5.3236,-5.3193,-5.319,-5.3274,-5.3283,-5.3293,-5.3392,-5.3318,-5.3323,-5.3327,-5.355,-5.3553,-5.3556,0,0,0,0,0,0,-5.3009,-5.3026,-5.3161,-5.3099,-5.3116,-5.3144,-5.3181,-5.3185,-5.3208,-5.324,-5.3244,-5.3212,-5.3272,-5.3285,-5.3357,-5.3395,-5.3326,-5.3331,-5.3546,-5.3551,-5.3554,-5.3592,0,0,0,0,0,0,-5.3004,-5.3024,-5.3057,-5.31,-5.3119,-5.3224,-5.3184,-5.3188,-5.3218,-5.3215,-5.3258,-5.3263,-5.3271,-5.3348,-5.3362,-5.3402,-5.3336,-5.3543,-5.3548,-5.3553,-5.3588,-5.3597,-5.3605,0,0,0,0,0,-5.2998,-5.3063,-5.3058,-5.3075,-5.3161,-5.3226,-5.3237,-5.3246,-5.3222,-5.3254,-5.3274,-5.3262,-5.3389,-5.3356,-5.3371,-5.3413,-5.3541,-5.3547,-5.3553,-5.3584,-5.3595,-5.3605,0,0,0,0,0,0,-5.3022,-5.3069,-5.3064,-5.3146,-5.3183,-5.3223,-5.3264,-5.3258,-5.3302,-5.3297,-5.3305,-5.3315,-5.3388,-5.3408,-5.337,-5.3496,-5.3461,-5.3471,-5.348,-5.3491,-5.3499,-5.3492,-5.334,0,0,0,0,0,-5.3037,-5.3088,-5.3126,-5.3194,-5.3213,-5.3236,-5.3265,-5.3269,-5.3306,-5.3321,-5.3347,-5.3383,-5.3431,-5.3463,-5.3509,-5.3592,-5.36,-5.3628,-5.3637,-5.3644,-5.3651,-5.3696,-5.3708,-5.3576,-5.3576,-5.3576,0,0,-5.3068,-5.31,-5.3131,-5.32,-5.3229,-5.328,-5.3249,-5.3304,-5.3342,-5.3329,-5.3399,-5.3419,-5.346,-5.3538,-5.3573,-5.3557,-5.369,-5.3652,-5.3657,-5.366,-5.3703,-5.3716,-5.3727,-5.358,-5.3579,-5.3578,0,0,-5.315,-5.318,-5.324,-5.3271,-5.3315,-5.333,-5.3345,-5.3387,-5.3401,-5.3471,-5.3463,-5.3508,-5.3591,-5.362,-5.3646,-5.3742,-5.3732,-5.3757,-5.3801,-5.3845,-5.3855,-5.3864,-5.3897,-5.3908,-5.3765,-5.3765,-5.3765,0,-5.3182,-5.326,-5.3271,-5.3328,-5.3358,-5.3352,-5.3412,-5.344,-5.3497,-5.3518,-5.3499,-5.3604,-5.3631,-5.3715,-5.3738,-5.376,-5.3776,-5.375,-5.3853,-5.3862,-5.3871,-5.3902,-5.3914,-5.3767,-5.3767,-5.3767,-5.3766,0,-5.3297,-5.3351,-5.3394,-5.3451,-5.3486,-5.3544,-5.3563,-5.3598,-5.36,-5.3616,-5.3688,-5.3721,-5.3773,-5.3794,-5.3796,-5.3879,-5.3867,-5.3851,-5.3816,-5.3886,-5.3915,-5.3927,-5.3771,-5.377,-5.3769,-5.3769,0,0,-5.3393,-5.3458,-5.3473,-5.3498,-5.3549,-5.359,-5.3648,-5.3701,-5.3729,-5.377,-5.3817,-5.3889,-5.3875,-5.3904,-5.391,-5.3948,-5.402,-5.3927,-5.3928,-5.3941,-5.4111,-5.4121,-5.4135,-5.4015,-5.4018,-5.4019,-5.4107,0,-5.3479,-5.3582,-5.3594,-5.3685,-5.3735,-5.3731,-5.3781,-5.3817,-5.3835,-5.3879,-5.3898,-5.3948,-5.3926,-5.3944,-5.3982,-5.4003,-5.4054,-5.3997,-5.4058,-5.406,-5.4044,-5.415,-5.4161,-5.4242,-5.4119,-5.4121,-5.4122,0,-5.3591,-5.3636,-5.3732,-5.3775,-5.3797,-5.3842,-5.3891,-5.3934,-5.3974,-5.3985,-5.4019,-5.402,-5.4079,-5.4044,-5.4125,-5.4086,-5.4112,-5.4127,-5.413,-5.4133,-5.4093,-5.4154,-5.4268,-5.4279,-5.4141,-5.4139,-5.4138,0,-5.3649,-5.3734,-5.3802,-5.3824,-5.3878,-5.3909,-5.3933,-5.3971,-5.4002,-5.4045,-5.4065,-5.4115,-5.4141,-5.4179,-5.4193,-5.4167,-5.4273,-5.424,-5.4282,-5.4281,-5.4301,-5.4299,-5.4418,-5.4323,-5.4323,-5.4323,-5.4322,0,-5.3741,-5.3799,-5.3829,-5.3871,-5.3936,-5.3951,-5.4014,-5.4036,-5.4071,-5.4116,-5.4117,-5.4159,-5.4176,-5.4221,-5.4233,-5.4297,-5.431,-5.4319,-5.432,-5.4317,-5.4315,-5.4332,-5.4325,-5.4326,-5.4325,-5.4325,-5.4324,0,-5.3816,-5.3838,-5.3912,-5.3957,-5.397,-5.4016,-5.4054,-5.4094,-5.4112,-5.417,-5.4184,-5.4212,-5.4265,-5.4284,-5.4349,-5.4357,-5.443,-5.4429,-5.4417,-5.4416,-5.4457,-5.4452,-5.4588,-5.4606,-5.4501,-5.4502,-5.4503,0,-5.3872,-5.3917,-5.3967,-5.3998,-5.4023,-5.4073,-5.4105,-5.4122,-5.4155,-5.4205,-5.4239,-5.4292,-5.4335,-5.442,-5.4446,-5.4495,-5.4493,-5.4538,-5.45,-5.4495,-5.4491,-5.4487,-5.4491,-5.4543,-5.4544,-5.4545,-5.4546,0,-5.3968,-5.3977,-5.4024,-5.4075,-5.4114,-5.4154,-5.4194,-5.4219,-5.4241,-5.4279,-5.4334,-5.4367,-5.4434,-5.4486,-5.4537,-5.456,-5.4556,-5.4558,-5.457,-5.4565,-5.4555,-5.4559,-5.4433,-5.4554,-5.4553,-5.4553,-5.4552,-5.4552,-5.4033,-5.4073,-5.4114,-5.4167,-5.4199,-5.4236,-5.4275,-5.43,-5.4346,-5.4402,-5.4409,-5.4468,-5.4508,-5.4576,-5.4602,-5.4647,-5.4635,-5.4652,-5.4656,-5.466,-5.4662,-5.4551,-5.4657,-5.4657,-5.4656,-5.4656,-5.4656,0,-5.4127,-5.4154,-5.4203,-5.4258,-5.4299,-5.4295,-5.4339,-5.4373,-5.4425,-5.4463,-5.4506,-5.4569,-5.462,-5.4651,-5.4702,-5.4733,-5.4732,-5.4745,-5.4741,-5.4747,-5.4671,-5.4654,-5.4745,-5.4745,-5.4745,-5.4745,-5.4744,-5.4744,-5.418,-5.4247,-5.4262,-5.4344,-5.4371,-5.4429,-5.4454,-5.4488,-5.4518,-5.4589,-5.4632,-5.4652,-5.4688,-5.4742,-5.4788,-5.4796,-5.4813,-5.4827,-5.4833,-5.4761,-5.4752,-5.4743,-5.4728,-5.4832,-5.4832,-5.4905,-5.4906,-5.4906]},{"header":{"parameterUnit":"m.s-1","parameterCategory":1,"la1":30.2991,"la2":30.254,"lo1":-89.0895,"lo2":-89.0444,"dy":0.0017,"dx":0.0017,"nx":28,"ny":28,"refTime":"2025-03-13T21:00:00:Z","depth":0,"parameterNumber":3,"parameterNumberName":"V-component_of_WINDS"},"data":[0,0,0,0,0,0,0,0,0,0,0,0,0,0,0,0,0,0,0,0,0,0,0,0,0,0,0,0,0,0,0,0,0,0,0,0,0,0,0,0,0,0,0,0,0,0,0,0,0,0,0,0,0,0,0,0,0,0,4.8871,4.8872,0,4.895,4.8951,4.8952,4.8962,4.8961,4.896,4.8959,4.9038,4.9041,4.9044,0,0,0,0,0,0,0,0,0,0,0,0,0,4.8729,4.8732,4.8871,4.8872,4.8873,4.895,4.8951,4.8952,4.8962,4.8961,4.896,4.8959,4.9037,4.9041,4.9044,0,0,0,0,0,0,0,0,0,0,0,0,0,4.8798,4.8732,4.8871,4.8887,4.8889,4.895,4.8951,4.8953,4.8962,4.8961,4.896,4.8959,4.9036,4.904,4.9044,4.9093,0,0,4.9057,4.9059,0,0,0,0,0,0,0,0,4.8794,4.8803,4.8884,4.8886,4.8889,4.8945,4.893,4.9,4.8962,4.8934,4.8959,4.8958,4.9008,4.9014,4.9032,4.9097,4.9101,4.9058,4.906,4.9062,4.9063,0,0,0,0,0,0,0,4.8789,4.8799,4.8902,4.8885,4.8888,4.8891,4.8899,4.8943,4.8977,4.8937,4.8938,4.8947,4.9009,4.9028,4.9034,4.9102,4.9057,4.9061,4.9064,4.9065,4.9216,4.9218,0,0,0,0,0,0,4.8781,4.8795,4.89,4.8905,4.8838,4.8894,4.8904,4.8928,4.8976,4.8982,4.8948,4.8947,4.9021,4.9029,4.9036,4.9101,4.9062,4.9066,4.9068,4.9215,4.9217,4.9218,0,0,0,0,0,0,4.8778,4.879,4.8897,4.8851,4.8864,4.8898,4.8925,4.893,4.8949,4.8985,4.899,4.8961,4.902,4.903,4.908,4.9103,4.9068,4.9072,4.9213,4.9215,4.9217,4.9227,0,0,0,0,0,0,4.8774,4.8789,4.8808,4.8851,4.8867,4.8939,4.8927,4.8933,4.8956,4.8956,4.8998,4.9004,4.902,4.9074,4.9085,4.9108,4.9075,4.9211,4.9214,4.9217,4.9225,4.9229,4.9233,0,0,0,0,0,4.8769,4.8806,4.8809,4.8821,4.8891,4.894,4.8949,4.8968,4.8958,4.8978,4.9001,4.9003,4.9099,4.9079,4.9091,4.9116,4.921,4.9213,4.9217,4.9223,4.9228,4.9233,0,0,0,0,0,0,4.8763,4.8812,4.8815,4.8867,4.89,4.8942,4.8967,4.8972,4.9008,4.9006,4.9027,4.9036,4.9086,4.9106,4.9083,4.9169,4.9154,4.9159,4.9154,4.916,4.9164,4.9158,4.9078,0,0,0,0,0,4.8768,4.8804,4.8845,4.8887,4.8903,4.8932,4.8955,4.8967,4.9001,4.9014,4.9041,4.9074,4.9113,4.9137,4.9173,4.9227,4.9239,4.9251,4.9255,4.9258,4.9264,4.9298,4.9305,4.9229,4.9229,4.9229,0,0,4.8778,4.8809,4.883,4.8886,4.8913,4.8952,4.8944,4.8983,4.9013,4.902,4.907,4.9091,4.913,4.9183,4.9208,4.9201,4.9287,4.9263,4.9265,4.9268,4.9302,4.9309,4.9315,4.9231,4.9231,4.9231,0,0,4.8816,4.8842,4.8882,4.891,4.8952,4.8971,4.8981,4.9023,4.9039,4.9089,4.9097,4.9132,4.9196,4.9224,4.9247,4.9301,4.9305,4.9312,4.9334,4.9367,4.9373,4.9378,4.9401,4.9408,4.9317,4.9317,4.9317,0,4.8823,4.8882,4.8902,4.8943,4.8969,4.8979,4.9021,4.9046,4.9097,4.9115,4.9107,4.9191,4.9217,4.9279,4.9293,4.931,4.9323,4.9308,4.9371,4.9376,4.9382,4.9403,4.9411,4.9318,4.9318,4.9318,4.9318,0,4.889,4.8931,4.8958,4.9009,4.9038,4.9079,4.9106,4.9133,4.9143,4.9164,4.9218,4.925,4.9296,4.9311,4.932,4.9376,4.9371,4.9366,4.9352,4.9389,4.941,4.9418,4.9319,4.9319,4.9318,4.9318,0,0,4.8925,4.899,4.9,4.9026,4.9074,4.9106,4.9148,4.9194,4.9218,4.9253,4.9291,4.9347,4.9345,4.9371,4.9384,4.9412,4.9458,4.9405,4.9406,4.9416,4.9525,4.953,4.9539,4.946,4.9462,4.9463,4.9523,0,4.8971,4.9048,4.907,4.9135,4.9175,4.9187,4.9225,4.9259,4.9281,4.9318,4.9341,4.9382,4.9374,4.9391,4.942,4.9446,4.948,4.9442,4.9497,4.9499,4.9489,4.9549,4.9553,4.9608,4.9531,4.9532,4.9533,0,4.9035,4.9075,4.9145,4.9192,4.921,4.9243,4.9289,4.9324,4.9364,4.9378,4.9409,4.942,4.9467,4.945,4.9515,4.9489,4.9513,4.953,4.9532,4.954,4.9519,4.956,4.9626,4.9635,4.9545,4.9544,4.9544,0,4.9057,4.9128,4.918,4.9201,4.9257,4.9281,4.9305,4.9344,4.9372,4.9412,4.9431,4.9475,4.95,4.9534,4.9558,4.9542,4.9623,4.9607,4.9638,4.9638,4.9655,4.9654,4.9728,4.9667,4.9667,4.9667,4.9666,0,4.9108,4.9151,4.9192,4.9224,4.9274,4.9299,4.9347,4.9372,4.9408,4.9446,4.9458,4.9494,4.9522,4.9562,4.9581,4.9635,4.9645,4.9659,4.9664,4.9659,4.9658,4.9676,4.9674,4.9669,4.9668,4.9668,4.9668,0,4.9141,4.917,4.9229,4.9278,4.9291,4.9326,4.9369,4.9401,4.9424,4.9473,4.9486,4.9522,4.957,4.9598,4.9657,4.967,4.9731,4.9732,4.9718,4.9721,4.9752,4.9749,4.9841,4.9856,4.9783,4.9784,4.9784,0,4.9173,4.9207,4.9261,4.9288,4.9314,4.9357,4.9386,4.9412,4.9443,4.9494,4.9521,4.957,4.9611,4.9688,4.972,4.9767,4.9771,4.98,4.9778,4.9774,4.9775,4.9774,4.9779,4.9804,4.9805,4.9805,4.9806,0,4.9226,4.924,4.9282,4.9331,4.9366,4.9405,4.9444,4.9466,4.9499,4.9532,4.9583,4.9615,4.9678,4.9728,4.9778,4.9804,4.9812,4.9813,4.9823,4.982,4.9811,4.982,4.9731,4.9811,4.981,4.981,4.981,4.9809,4.9261,4.9294,4.9339,4.9386,4.9419,4.9456,4.9491,4.952,4.9562,4.9617,4.963,4.9684,4.9727,4.9796,4.9823,4.9866,4.9861,4.9875,4.9879,4.9882,4.9885,4.9803,4.9875,4.9875,4.9875,4.9875,4.9874,0,4.9318,4.9348,4.9392,4.9448,4.9486,4.9491,4.9536,4.9568,4.9616,4.9655,4.9697,4.9757,4.9806,4.9843,4.9894,4.9922,4.9927,4.9935,4.9934,4.9941,4.9885,4.9873,4.993,4.993,4.993,4.993,4.993,4.993,4.9352,4.9409,4.9429,4.9503,4.9533,4.9587,4.9613,4.9648,4.968,4.9747,4.9789,4.9814,4.9853,4.9908,4.9955,4.9964,4.9984,4.9991,5.0002,4.995,4.9944,4.9938,4.9927,4.9995,4.9995,5.0054,5.0055,5.0055]}]]